"Timestamp","TZ","WindDir_Mean (deg)","WindSpd_Mean (km/h)","WindSpd_Min (km/h)","WindSpd_Max (km/h)","Temp_Mean (deg)","RH_Mean (%)","MSLP_Mean (hPa)","Rain_Acc (mm)","Rain_Intensity (mm/h)","Hail_Acc (hits/cm2)","Hail_Intensity (hits/cm2hr)","Solar_Mean (W/m2)"
2020/09/10 00:00:00.005,n,198,1.8,1.44,2.16,15.5,77.3,1022.32,0,0,0,0,0.030479
2020/09/10 00:01:00.000,n,218,2.52,2.16,2.52,15.5,77.2,1022.32,0,0,0,0,0.030479
2020/09/10 00:02:00.000,n,241,2.16,2.16,2.52,15.5,77,1022.32,0,0,0,0,0.034828
2020/09/10 00:03:00.000,n,152,2.52,2.16,2.88,15.5,77.1,1022.32,0,0,0,0,0.028725
2020/09/10 00:04:00.000,n,219,1.44,1.08,1.44,15.4,77,1022.32,0,0,0,0,0.031357
2020/09/10 00:05:00.006,n,255,1.44,0.72,2.16,15.4,77.2,1022.32,0,0,0,0,0.026093
2020/09/10 00:06:00.003,n,99,1.44,1.08,1.8,15.4,76.8,1022.32,0,0,0,0,0.030479
2020/09/10 00:07:00.001,n,58,0.36,0,1.44,15.4,76.7,1022.32,0,0,0,0,0.024376
2020/09/10 00:08:00.000,n,102,0.72,0.36,1.44,15.4,76.7,1022.32,0,0,0,0,0.027885
2020/09/10 00:09:00.013,n,106,2.88,2.16,3.6,15.4,76.7,1022.32,0,0,0,0,0.025253
2020/09/10 00:10:00.000,n,228,2.16,1.44,3.24,15.4,76.3,1022.32,0,0,0,0,0.028725
2020/09/10 00:11:00.000,n,175,2.88,2.52,3.24,15.3,76.3,1022.32,0,0,0,0,0.027885
2020/09/10 00:12:00.004,n,126,2.52,1.8,2.88,15.3,76.3,1022.32,0,0,0,0,0.029602
2020/09/10 00:13:00.001,n,75,0.72,0.36,1.08,15.3,76.1,1022.32,0,0,0,0,0.027008
2020/09/10 00:14:00.000,n,145,2.16,0.72,2.88,15.3,76,1022.32,0,0,0,0,0.027885
2020/09/10 00:15:00.000,n,133,1.44,0.36,2.88,15.3,76,1022.32,0,0,0,0,0.027008
2020/09/10 00:16:00.009,n,30,1.44,0.72,1.8,15.3,76.1,1022.32,0,0,0,0,0.025253
2020/09/10 00:17:00.006,n,119,1.44,1.08,1.8,15.4,76.3,1022.32,0,0,0,0,0.026093
2020/09/10 00:18:00.003,n,42,3.6,2.88,3.96,15.4,76.5,1022.32,0,0,0,0,0.023499
2020/09/10 00:19:00.001,n,155,2.52,2.16,3.24,15.4,76.3,1022.22,0,0,0,0,0.026093
2020/09/10 00:20:00.000,n,123,0.36,0,1.44,15.4,76.3,1022.22,0,0,0,0,0.024376
2020/09/10 00:21:00.000,n,24,2.16,1.8,2.88,15.4,76.7,1022.22,0,0,0,0,0.021744
2020/09/10 00:22:00.001,n,3,3.96,3.24,4.32,15.5,76.4,1022.22,0,0,0,0,0.024376
2020/09/10 00:23:00.000,n,291,0.72,0.36,1.44,15.5,76.4,1022.22,0,0,0,0,0.023499
2020/09/10 00:24:00.000,n,47,1.8,1.44,2.16,15.5,76.2,1022.12,0,0,0,0,0.022659
2020/09/10 00:25:00.008,n,81,2.88,2.52,4.32,15.5,76.1,1022.12,0,0,0,0,0.026093
2020/09/10 00:26:00.005,n,70,1.44,1.08,2.52,15.5,75.8,1022.12,0,0,0,0,0.024376
2020/09/10 00:27:00.003,n,152,2.16,1.8,2.52,15.5,75.5,1022.12,0,0,0,0,0.022659
2020/09/10 00:28:00.000,n,186,1.8,0.72,2.16,15.5,75.1,1022.12,0,0,0,0,0.024376
2020/09/10 00:29:00.000,n,177,1.08,0.72,1.44,15.5,75.3,1022.12,0,0,0,0,0.022659
2020/09/10 00:30:00.000,n,270,3.24,2.88,3.96,15.5,75.1,1022.12,0,0,0,0,0.027885
2020/09/10 00:31:00.000,n,70,1.08,0.36,1.8,15.6,75.1,1022.12,0,0,0,0,0.025253
2020/09/10 00:32:00.005,n,285,2.16,1.44,2.16,15.6,74.9,1022.12,0,0,0,0,0.025253
2020/09/10 00:33:00.002,n,354,1.08,0.72,1.44,15.6,74.8,1022.12,0,0,0,0,0.027008
2020/09/10 00:34:00.000,n,238,2.88,1.8,3.96,15.6,74.5,1022.12,0,0,0,0,0.026093
2020/09/10 00:35:00.013,n,2,1.08,0.72,1.08,15.5,74.3,1022.02,0,0,0,0,0.022659
2020/09/10 00:36:00.010,n,232,2.16,1.8,2.52,15.5,74.2,1022.02,0,0,0,0,0.031357
2020/09/10 00:37:00.000,n,127,2.88,1.44,3.96,15.5,73.9,1022.02,0,0,0,0,0.027008
2020/09/10 00:38:00.000,n,85,0.36,0.36,0.72,15.5,73.9,1022.02,0,0,0,0,0.027008
2020/09/10 00:39:00.002,n,199,1.08,1.08,1.08,15.5,73.9,1022.02,0,0,0,0,0.029602
2020/09/10 00:40:00.000,n,239,2.16,1.8,2.88,15.5,74.1,1022.02,0,0,0,0,0.020027
2020/09/10 00:41:00.000,n,180,2.16,1.44,2.52,15.5,74,1022.02,0,0,0,0,0.028725
2020/09/10 00:42:00.009,n,62,1.44,0.72,2.16,15.5,74,1022.02,0,0,0,0,0.030479
2020/09/10 00:43:00.007,n,103,2.16,1.44,3.24,15.5,74.2,1022.02,0,0,0,0,0.028725
2020/09/10 00:44:00.004,n,64,2.16,1.44,3.6,15.6,74.2,1021.92,0,0,0,0,0.030479
2020/09/10 00:45:00.001,n,163,1.08,0.72,1.44,15.6,73.7,1021.92,0,0,0,0,0.033073
2020/09/10 00:46:00.000,n,274,2.88,1.08,3.6,15.6,73.1,1021.92,0,0,0,0,0.030479
2020/09/10 00:47:00.000,n,155,1.08,0.72,1.08,15.6,73,1021.92,0,0,0,0,0.027885
2020/09/10 00:48:00.000,n,143,0.36,0.36,1.08,15.6,73.2,1021.92,0,0,0,0,0.030479
2020/09/10 00:49:00.005,n,303,0.72,0.36,0.72,15.6,73.5,1021.92,0,0,0,0,0.029602
2020/09/10 00:50:00.002,n,250,1.08,0.72,1.44,15.7,73.2,1021.92,0,0,0,0,0.029602
2020/09/10 00:51:00.000,n,251,2.16,1.8,2.52,15.7,73.1,1021.92,0,0,0,0,0.032234
2020/09/10 00:52:00.000,n,275,0.72,0.36,0.72,15.7,73.2,1021.82,0,0,0,0,0.032234
2020/09/10 00:53:00.009,n,208,0.36,0.36,0.36,15.7,73,1021.82,0,0,0,0,0.033073
2020/09/10 00:54:00.005,n,236,1.8,1.8,2.52,15.7,72.9,1021.82,0,0,0,0,0.035706
2020/09/10 00:55:00.000,n,243,0.36,0.36,0.72,15.7,72.8,1021.82,0,0,0,0,0.033951
2020/09/10 00:56:00.000,n,156,1.08,0.72,1.44,15.7,72.8,1021.82,0,0,0,0,0.029602
2020/09/10 00:57:00.000,n,152,2.52,2.16,3.24,15.7,72.9,1021.72,0,0,0,0,0.033951
2020/09/10 00:58:00.000,n,152,1.8,1.44,1.8,15.7,72.9,1021.72,0,0,0,0,0.033951
2020/09/10 00:59:00.007,n,125,1.8,0.72,2.16,15.7,73,1021.72,0,0,0,0,0.033951
2020/09/10 01:00:00.005,n,172,2.16,2.16,2.16,15.7,72.6,1021.72,0,0,0,0,0.034828
2020/09/10 01:01:00.001,n,197,3.24,2.88,3.6,15.6,72.6,1021.72,0,0,0,0,0.034828
2020/09/10 01:02:00.000,n,128,2.52,1.8,3.24,15.6,72.6,1021.72,0,0,0,0,0.037422
2020/09/10 01:03:00.011,n,188,2.88,2.52,3.24,15.6,72.7,1021.72,0,0,0,0,0.035706
2020/09/10 01:04:00.000,n,178,4.32,3.96,4.68,15.6,72.7,1021.72,0,0,0,0,0.036583
2020/09/10 01:05:00.000,n,97,1.44,1.44,1.8,15.6,72.5,1021.72,0,0,0,0,0.035706
2020/09/10 01:06:00.002,n,270,3.24,2.88,3.96,15.6,72.8,1021.72,0,0,0,0,0.037422
2020/09/10 01:07:00.000,n,278,6.12,5.4,6.48,15.6,72.6,1021.72,0,0,0,0,0.0383
2020/09/10 01:08:00.000,n,288,5.04,4.68,5.4,15.6,72.5,1021.72,0,0,0,0,0.040932
2020/09/10 01:09:00.010,n,271,3.24,3.24,3.96,15.5,72.6,1021.72,0,0,0,0,0.034828
2020/09/10 01:10:00.007,n,256,2.88,2.16,3.24,15.5,72.8,1021.72,0,0,0,0,0.0383
2020/09/10 01:11:00.005,n,257,2.88,2.52,3.24,15.5,73,1021.72,0,0,0,0,0.040054
2020/09/10 01:12:00.002,n,241,2.88,2.52,3.24,15.4,73.6,1021.72,0,0,0,0,0.036583
2020/09/10 01:13:00.000,n,235,2.16,1.44,2.52,15.4,73.4,1021.72,0,0,0,0,0.0383
2020/09/10 01:14:00.000,n,218,1.8,1.44,2.16,15.4,74.2,1021.72,0,0,0,0,0.0383
2020/09/10 01:15:00.000,n,262,2.88,2.52,3.24,15.5,74.5,1021.62,0,0,0,0,0.036583
2020/09/10 01:16:00.000,n,147,3.24,1.8,3.96,15.4,73.6,1021.62,0,0,0,0,0.034828
2020/09/10 01:17:00.004,n,115,1.08,0.72,1.08,15.4,73.6,1021.62,0,0,0,0,0.036583
2020/09/10 01:18:00.001,n,102,1.08,1.08,1.44,15.3,73.7,1021.62,0,0,0,0,0.036583
2020/09/10 01:19:00.000,n,164,1.44,0.72,2.16,15.3,74.1,1021.62,0,0,0,0,0.035706
2020/09/10 01:20:00.012,n,292,0.72,0.36,1.08,15.3,74.2,1021.62,0,0,0,0,0.035706
2020/09/10 01:21:00.009,n,248,1.08,0.72,1.08,15.3,74.2,1021.52,0,0,0,0,0.037422
2020/09/10 01:22:00.000,n,293,1.08,0.72,1.44,15.3,74.2,1021.52,0,0,0,0,0.037422
2020/09/10 01:23:00.000,n,111,0.36,0.36,0.72,15.3,74.1,1021.52,0,0,0,0,0.033951
2020/09/10 01:24:00.000,n,143,1.08,0,2.52,15.3,74.2,1021.42,0,0,0,0,0.040054
2020/09/10 01:25:00.000,n,306,1.8,1.44,2.16,15.3,74.1,1021.42,0,0,0,0,0.037422
2020/09/10 01:26:00.000,n,206,1.44,0.72,2.16,15.3,74.1,1021.42,0,0,0,0,0.032234
2020/09/10 01:27:00.008,n,261,2.16,1.44,2.88,15.3,74,1021.42,0,0,0,0,0.030479
2020/09/10 01:28:00.005,n,175,0.72,0.72,1.44,15.3,74.3,1021.42,0,0,0,0,0.035706
2020/09/10 01:29:00.002,n,289,1.08,0.72,1.8,15.3,74.3,1021.52,0,0,0,0,0.036583
2020/09/10 01:30:00.015,n,116,1.44,0.72,2.16,15.2,74.4,1021.52,0,0,0,0,0.034828
2020/09/10 01:31:00.000,n,41,1.8,1.08,2.16,15.3,74.5,1021.42,0,0,0,0,0.033951
2020/09/10 01:32:00.000,n,104,0.36,0.36,0.72,15.3,74.3,1021.42,0,0,0,0,0.033951
2020/09/10 01:33:00.000,n,278,1.8,1.08,2.16,15.3,74.3,1021.42,0,0,0,0,0.030479
2020/09/10 01:34:00.005,n,122,1.08,0.72,1.44,15.3,74.2,1021.42,0,0,0,0,0.032234
2020/09/10 01:35:00.002,n,261,3.24,2.88,3.96,15.3,74.2,1021.42,0,0,0,0,0.031357
2020/09/10 01:36:00.000,n,254,2.52,2.16,3.6,15.3,74.6,1021.42,0,0,0,0,0.030479
2020/09/10 01:37:00.012,n,279,1.44,1.08,2.16,15.3,74.7,1021.42,0,0,0,0,0.033073
2020/09/10 01:38:00.009,n,241,2.88,2.52,3.24,15.3,74.2,1021.42,0,0,0,0,0.033073
2020/09/10 01:39:00.006,n,262,2.52,2.16,2.88,15.3,74.4,1021.42,0,0,0,0,0.030479
2020/09/10 01:40:00.000,n,272,3.96,3.6,4.32,15.2,74,1021.42,0,0,0,0,0.031357
2020/09/10 01:41:00.000,n,254,3.24,2.88,3.6,15.2,74.1,1021.42,0,0,0,0,0.030479
2020/09/10 01:42:00.000,n,199,1.44,1.08,2.16,15.2,74.1,1021.42,0,0,0,0,0.028725
2020/09/10 01:43:00.000,n,333,2.16,1.44,2.52,15.2,74.2,1021.42,0,0,0,0,0.033951
2020/09/10 01:44:00.008,n,246,0,0,0.36,15.2,74.5,1021.42,0,0,0,0,0.033073
2020/09/10 01:45:00.005,n,267,2.88,2.52,3.24,15.2,74.3,1021.42,0,0,0,0,0.030479
2020/09/10 01:46:00.003,n,193,1.08,0.72,1.44,15.2,74.4,1021.42,0,0,0,0,0.033073
2020/09/10 01:47:00.000,n,351,0.36,0,1.44,15.2,74.3,1021.32,0,0,0,0,0.031357
2020/09/10 01:48:00.013,n,263,0.72,0,1.44,15.2,74.2,1021.32,0,0,0,0,0.032234
2020/09/10 01:49:00.000,n,143,3.24,2.52,3.6,15.2,74.1,1021.32,0,0,0,0,0.030479
2020/09/10 01:50:00.000,n,112,1.08,0.72,1.44,15.2,73.9,1021.32,0,0,0,0,0.029602
2020/09/10 01:51:00.000,n,187,1.08,0.72,2.16,15.2,74,1021.32,0,0,0,0,0.033951
2020/09/10 01:52:00.003,n,132,2.52,1.44,3.24,15.2,73.9,1021.32,0,0,0,0,0.034828
2020/09/10 01:53:00.000,n,38,2.52,1.8,2.88,15.2,74.4,1021.32,0,0,0,0,0.031357
2020/09/10 01:54:00.000,n,104,2.52,2.16,2.88,15.3,73.9,1021.22,0,0,0,0,0.032234
2020/09/10 01:55:00.010,n,206,2.52,1.8,3.24,15.3,73.8,1021.22,0,0,0,0,0.031357
2020/09/10 01:56:00.007,n,243,2.52,2.16,3.24,15.3,73.7,1021.22,0,0,0,0,0.031357
2020/09/10 01:57:00.005,n,243,2.52,2.16,2.52,15.3,73.7,1021.22,0,0,0,0,0.037422
2020/09/10 01:58:00.002,n,213,3.24,2.52,3.24,15.3,73.6,1021.22,0,0,0,0,0.034828
2020/09/10 01:59:00.000,n,237,1.44,1.08,2.16,15.3,74.1,1021.22,0,0,0,0,0.033951
2020/09/10 02:00:00.000,n,272,3.24,2.52,3.96,15.3,73.7,1021.22,0,0,0,0,0.035706
2020/09/10 02:01:00.000,n,311,1.44,0.72,2.16,15.3,73.8,1021.22,0,0,0,0,0.036583
2020/09/10 02:02:00.006,n,299,1.8,1.44,2.52,15.3,73.6,1021.22,0,0,0,0,0.035706
2020/09/10 02:03:00.004,n,147,2.52,1.44,2.88,15.3,74.2,1021.22,0,0,0,0,0.035706
2020/09/10 02:04:00.001,n,159,1.44,0.72,1.8,15.3,73.7,1021.22,0,0,0,0,0.040932
2020/09/10 02:05:00.014,n,80,1.08,0.36,1.44,15.3,73.5,1021.22,0,0,0,0,0.037422
2020/09/10 02:06:00.011,n,253,1.44,1.08,1.8,15.3,73.4,1021.12,0,0,0,0,0.039177
2020/09/10 02:07:00.000,n,250,2.52,2.16,3.24,15.3,73.4,1021.12,0,0,0,0,0.0383
2020/09/10 02:08:00.000,n,304,0.36,0.36,0.72,15.3,73,1021.12,0,0,0,0,0.040054
2020/09/10 02:09:00.003,n,219,1.8,1.08,2.16,15.3,73,1021.12,0,0,0,0,0.033073
2020/09/10 02:10:00.000,n,209,2.16,1.8,2.52,15.3,73.1,1021.12,0,0,0,0,0.037422
2020/09/10 02:11:00.000,n,168,1.8,1.08,3.24,15.3,72.9,1021.12,0,0,0,0,0.0383
2020/09/10 02:12:00.010,n,255,2.88,2.52,3.24,15.3,73.2,1021.12,0,0,0,0,0.041809
2020/09/10 02:13:00.008,n,245,2.88,2.52,3.24,15.3,73.3,1021.12,0,0,0,0,0.039177
2020/09/10 02:14:00.004,n,260,2.88,2.16,3.6,15.4,73.3,1021.12,0,0,0,0,0.040932
2020/09/10 02:15:00.001,n,199,0.36,0.36,0.72,15.4,73.6,1021.12,0,0,0,0,0.040932
2020/09/10 02:16:00.000,n,244,1.8,0.72,2.88,15.4,73.4,1021.12,0,0,0,0,0.040932
2020/09/10 02:17:00.000,n,307,3.96,2.52,4.32,15.4,73.1,1021.12,0,0,0,0,0.039177
2020/09/10 02:18:00.000,n,220,1.44,0.72,1.8,15.4,73.3,1021.12,0,0,0,0,0.040054
2020/09/10 02:19:00.006,n,248,2.52,1.44,3.6,15.4,73.3,1021.12,0,0,0,0,0.040054
2020/09/10 02:20:00.004,n,273,2.52,2.52,3.24,15.4,73,1021.12,0,0,0,0,0.035706
2020/09/10 02:21:00.000,n,259,1.44,0.72,1.8,15.4,72.8,1021.12,0,0,0,0,0.040054
2020/09/10 02:22:00.000,n,130,2.52,2.16,3.96,15.4,72.9,1021.12,0,0,0,0,0.040932
2020/09/10 02:23:00.010,n,264,3.24,3.24,3.96,15.4,72.6,1021.12,0,0,0,0,0.040054
2020/09/10 02:24:00.008,n,298,4.32,1.8,5.76,15.4,72.6,1021.12,0,0,0,0,0.041809
2020/09/10 02:25:00.000,n,285,3.96,1.8,5.4,15.4,73,1021.12,0,0,0,0,0.041809
2020/09/10 02:26:00.001,n,293,5.76,4.68,6.84,15.3,73,1021.12,0,0,0,0,0.044403
2020/09/10 02:27:00.000,n,269,5.76,5.4,6.48,15.3,72.5,1021.02,0,0,0,0,0.040932
2020/09/10 02:28:00.000,n,263,4.68,4.68,5.04,15.2,72.6,1021.02,0,0,0,0,0.043526
2020/09/10 02:29:00.008,n,273,7.2,5.76,7.56,15.2,72.8,1021.02,0,0,0,0,0.042648
2020/09/10 02:30:00.005,n,307,2.52,2.16,3.6,15.2,73.1,1021.02,0,0,0,0,0.042648
2020/09/10 02:31:00.002,n,280,5.4,5.04,5.76,15.1,73,1021.02,0,0,0,0,0.040932
2020/09/10 02:32:00.000,n,236,1.8,1.44,1.8,15.1,73.2,1021.02,0,0,0,0,0.042648
2020/09/10 02:33:00.013,n,276,2.88,1.08,3.6,15.1,74,1021.02,0,0,0,0,0.039177
2020/09/10 02:34:00.000,n,271,2.88,2.16,3.24,15.1,74.5,1021.02,0,0,0,0,0.040932
2020/09/10 02:35:00.000,n,256,2.16,2.16,2.52,15.1,74.4,1021.02,0,0,0,0,0.042648
2020/09/10 02:36:00.005,n,217,1.8,1.8,2.16,15.1,74.7,1021.02,0,0,0,0,0.036583
2020/09/10 02:37:00.002,n,137,0.72,0.36,1.08,15.1,74,1021.02,0,0,0,0,0.040054
2020/09/10 02:38:00.000,n,136,0.72,0.36,0.72,15.1,74,1021.02,0,0,0,0,0.037422
2020/09/10 02:39:00.000,n,235,1.44,0.72,2.16,15.1,74.3,1021.02,0,0,0,0,0.040932
2020/09/10 02:40:00.010,n,242,2.88,2.16,3.24,15.1,73.9,1020.92,0,0,0,0,0.0383
2020/09/10 02:41:00.007,n,241,2.52,1.44,3.24,15,73.8,1020.92,0,0,0,0,0.032234
2020/09/10 02:42:00.003,n,249,2.52,2.16,2.52,15,73.8,1020.92,0,0,0,0,0.031357
2020/09/10 02:43:00.001,n,266,3.24,2.16,3.96,15,73.7,1020.92,0,0,0,0,0.037422
2020/09/10 02:44:00.000,n,274,2.52,2.16,2.88,15,75,1020.92,0,0,0,0,0.035706
2020/09/10 02:45:00.000,n,223,3.24,2.52,3.6,15.1,74.2,1020.92,0,0,0,0,0.035706
2020/09/10 02:46:00.000,n,266,4.68,4.32,5.04,15,73.8,1020.92,0,0,0,0,0.037422
2020/09/10 02:47:00.006,n,265,5.76,5.76,6.12,15,73.6,1020.92,0,0,0,0,0.032234
2020/09/10 02:48:00.003,n,257,5.04,4.68,5.04,15,73.6,1020.82,0,0,0,0,0.030479
2020/09/10 02:49:00.000,n,261,4.68,4.32,4.68,14.9,73.6,1020.82,0,0,0,0,0.032234
2020/09/10 02:50:00.013,n,255,3.24,2.88,3.24,14.9,73.7,1020.82,0,0,0,0,0.034828
2020/09/10 02:51:00.010,n,258,2.88,2.52,2.88,14.9,73.9,1020.82,0,0,0,0,0.029602
2020/09/10 02:52:00.000,n,263,3.6,3.24,3.96,14.9,73.9,1020.72,0,0,0,0,0.032234
2020/09/10 02:53:00.000,n,248,3.96,3.6,3.96,14.9,73.9,1020.72,0,0,0,0,0.031357
2020/09/10 02:54:00.000,n,203,1.8,1.44,2.16,14.9,74,1020.72,0,0,0,0,0.033951
2020/09/10 02:55:00.000,n,149,0.72,0.36,1.08,14.9,74.4,1020.72,0,0,0,0,0.031357
2020/09/10 02:56:00.000,n,148,0.72,0.36,1.08,14.9,74.2,1020.72,0,0,0,0,0.030479
2020/09/10 02:57:00.008,n,130,0.72,0.72,1.08,14.9,74.1,1020.72,0,0,0,0,0.028725
2020/09/10 02:58:00.005,n,182,1.8,1.08,1.8,14.9,74.2,1020.72,0,0,0,0,0.027885
2020/09/10 02:59:00.002,n,176,0.72,0.36,1.08,15,74.1,1020.72,0,0,0,0,0.024376
2020/09/10 03:00:00.015,n,186,2.16,1.8,2.52,15,74,1020.72,0,0,0,0,0.027885
2020/09/10 03:01:00.000,n,197,1.8,1.44,2.16,15,73.9,1020.72,0,0,0,0,0.028725
2020/09/10 03:02:00.000,n,160,0.36,0.36,0.72,15,74.5,1020.72,0,0,0,0,0.020027
2020/09/10 03:03:00.000,n,265,3.24,2.16,3.6,15,75,1020.72,0,0,0,0,0.026093
2020/09/10 03:04:00.004,n,277,1.08,0.72,1.08,15.1,75,1020.72,0,0,0,0,0.026093
2020/09/10 03:05:00.001,n,248,2.52,2.16,2.88,15.1,74.7,1020.72,0,0,0,0,0.023499
2020/09/10 03:06:00.000,n,140,1.44,1.08,2.16,15.1,74.9,1020.72,0,0,0,0,0.024376
2020/09/10 03:07:00.012,n,28,0.72,0.36,1.08,15.1,74.6,1020.72,0,0,0,0,0.023499
2020/09/10 03:08:00.009,n,85,2.88,2.16,3.24,15.1,74.1,1020.72,0,0,0,0,0.021744
2020/09/10 03:09:00.006,n,89,0.72,0.72,1.08,15,74.1,1020.72,0,0,0,0,0.021744
2020/09/10 03:10:00.000,n,146,1.44,1.44,1.8,15,74,1020.72,0,0,0,0,0.022659
2020/09/10 03:11:00.000,n,150,1.44,1.08,1.44,15,74.1,1020.72,0,0,0,0,0.032196
2020/09/10 03:12:00.000,n,139,3.24,2.88,3.6,15,74.4,1020.72,0,0,0,0,0.036545
2020/09/10 03:13:00.006,n,145,2.52,2.52,2.52,14.9,74.4,1020.72,0,0,0,0,0.033913
2020/09/10 03:14:00.004,n,125,3.24,2.16,3.96,14.9,74.8,1020.72,0,0,0,0,0.030479
2020/09/10 03:15:00.000,n,144,3.24,3.24,3.6,14.9,75.2,1020.72,0,0,0,0,0.034828
2020/09/10 03:16:00.000,n,135,3.6,3.24,3.96,14.8,75.5,1020.62,0,0,0,0,0.031319
2020/09/10 03:17:00.011,n,126,3.6,3.6,3.96,14.8,75.7,1020.62,0,0,0,0,0.031319
2020/09/10 03:18:00.007,n,145,5.76,5.76,6.12,14.7,76,1020.62,0,0,0,0,0.030479
2020/09/10 03:19:00.000,n,146,2.88,2.16,2.88,14.7,76.2,1020.62,0,0,0,0,0.027847
2020/09/10 03:20:00.002,n,142,2.88,2.52,3.24,14.6,76.4,1020.62,0,0,0,0,0.031319
2020/09/10 03:21:00.000,n,147,3.6,3.24,3.6,14.6,76.6,1020.62,0,0,0,0,0.030479
2020/09/10 03:22:00.000,n,142,3.6,3.6,3.6,14.6,76.8,1020.62,0,0,0,0,0.033913
2020/09/10 03:23:00.000,n,144,3.6,3.6,3.6,14.5,76.9,1020.62,0,0,0,0,0.028687
2020/09/10 03:24:00.006,n,147,2.52,2.52,2.88,14.5,77,1020.62,0,0,0,0,0.028687
2020/09/10 03:25:00.003,n,138,3.6,3.24,3.96,14.5,77,1020.62,0,0,0,0,0.023499
2020/09/10 03:26:00.000,n,126,3.24,2.88,3.6,14.5,77.1,1020.52,0,0,0,0,0.032196
2020/09/10 03:27:00.013,n,135,3.6,2.88,3.96,14.5,77.2,1020.52,0,0,0,0,0.025215
2020/09/10 03:28:00.000,n,117,2.88,2.16,3.24,14.5,77.3,1020.52,0,0,0,0,0.027847
2020/09/10 03:29:00.000,n,184,1.44,1.08,1.8,14.5,77.3,1020.52,0,0,0,0,0.026093
2020/09/10 03:30:00.004,n,125,2.16,2.16,2.52,14.5,77.3,1020.52,0,0,0,0,0.025215
2020/09/10 03:31:00.002,n,113,1.44,1.08,1.8,14.5,77.4,1020.52,0,0,0,0,0.022621
2020/09/10 03:32:00.000,n,145,3.24,2.88,3.96,14.5,77.4,1020.52,0,0,0,0,0.025215
2020/09/10 03:33:00.000,n,172,3.24,2.88,3.6,14.5,77.6,1020.52,0,0,0,0,0.026093
2020/09/10 03:34:00.009,n,165,3.24,2.88,4.32,14.4,77.5,1020.52,0,0,0,0,0.020866
2020/09/10 03:35:00.007,n,155,4.68,4.32,5.4,14.4,77.6,1020.52,0,0,0,0,0.026093
2020/09/10 03:36:00.004,n,160,3.6,3.24,3.96,14.4,77.6,1020.52,0,0,0,0,0.019989
2020/09/10 03:37:00.001,n,170,4.32,3.96,4.68,14.4,77.6,1020.52,0,0,0,0,0.027847
2020/09/10 03:38:00.000,n,169,3.6,3.24,4.32,14.4,77.4,1020.42,0,0,0,0,0.022621
2020/09/10 03:39:00.000,n,157,5.4,5.04,5.4,14.4,77.3,1020.52,0,0,0,0,0.024338
2020/09/10 03:40:00.000,n,156,4.32,3.6,4.68,14.4,77.2,1020.52,0,0,0,0,0.01915
2020/09/10 03:41:00.005,n,151,5.04,4.32,6.12,14.4,77.2,1020.52,0,0,0,0,0.026093
2020/09/10 03:42:00.003,n,133,3.24,2.88,3.24,14.4,77.1,1020.42,0,0,0,0,0.023499
2020/09/10 03:43:00.002,n,161,3.24,1.8,3.96,14.5,77.1,1020.52,0,0,0,0,0.022621
2020/09/10 03:44:00.000,n,139,4.68,4.32,5.4,14.5,77,1020.52,0,0,0,0,0.024338
2020/09/10 03:45:00.012,n,136,3.24,2.88,3.6,14.5,76.9,1020.52,0,0,0,0,0.023499
2020/09/10 03:46:00.000,n,172,2.16,0.72,4.68,14.5,76.8,1020.52,0,0,0,0,0.023499
2020/09/10 03:47:00.000,n,174,4.32,3.96,4.68,14.5,76.6,1020.52,0,0,0,0,0.022621
2020/09/10 03:48:00.003,n,158,3.6,1.44,4.32,14.5,76.7,1020.52,0,0,0,0,0.021744
2020/09/10 03:49:00.000,n,143,1.08,1.08,1.8,14.5,76.6,1020.42,0,0,0,0,0.031357
2020/09/10 03:50:00.000,n,147,3.6,3.24,3.96,14.5,76.6,1020.42,0,0,0,0,0.034828
2020/09/10 03:51:00.000,n,144,3.96,3.6,4.68,14.6,76.5,1020.42,0,0,0,0,0.034828
2020/09/10 03:52:00.008,n,183,3.24,2.52,3.96,14.6,76.5,1020.42,0,0,0,0,0.030479
2020/09/10 03:53:00.005,n,142,2.88,2.88,3.24,14.6,76.5,1020.42,0,0,0,0,0.036583
2020/09/10 03:54:00.002,n,140,1.8,1.44,2.88,14.6,76.4,1020.42,0,0,0,0,0.028763
2020/09/10 03:55:00.000,n,181,3.6,3.6,3.96,14.6,76.3,1020.42,0,0,0,0,0.034828
2020/09/10 03:56:00.000,n,118,2.16,0.72,3.24,14.7,76.3,1020.52,0,0,0,0,0.034828
2020/09/10 03:57:00.000,n,169,4.32,4.32,4.68,14.7,76.2,1020.52,0,0,0,0,0.032234
2020/09/10 03:58:00.000,n,183,5.04,4.32,5.4,14.7,76.2,1020.52,0,0,0,0,0.036583
2020/09/10 03:59:00.005,n,178,5.04,4.68,5.4,14.7,76.2,1020.62,0,0,0,0,0.030479
2020/09/10 04:00:00.003,n,145,4.32,3.96,5.04,14.7,76.2,1020.62,0,0,0,0,0.033989
2020/09/10 04:01:00.000,n,156,5.04,4.32,5.76,14.7,76.1,1020.62,0,0,0,0,0.033989
2020/09/10 04:02:00.012,n,177,3.6,2.88,3.6,14.7,76.1,1020.62,0,0,0,0,0.035706
2020/09/10 04:03:00.009,n,169,3.24,2.88,3.24,14.7,76,1020.62,0,0,0,0,0.034828
2020/09/10 04:04:00.000,n,162,3.24,2.88,3.6,14.8,75.9,1020.62,0,0,0,0,0.032234
2020/09/10 04:05:00.003,n,160,2.52,1.8,3.24,14.8,75.8,1020.62,0,0,0,0,0.035706
2020/09/10 04:06:00.000,n,149,3.24,2.88,4.32,14.8,75.7,1020.62,0,0,0,0,0.035706
2020/09/10 04:07:00.000,n,129,3.96,3.24,4.68,14.8,75.6,1020.62,0,0,0,0,0.033989
2020/09/10 04:08:00.000,n,144,4.68,4.68,5.4,14.8,75.5,1020.52,0,0,0,0,0.033112
2020/09/10 04:09:00.007,n,156,2.52,2.16,2.88,14.8,75.5,1020.52,0,0,0,0,0.033989
2020/09/10 04:10:00.005,n,150,3.96,2.52,5.4,14.7,75.5,1020.52,0,0,0,0,0.033989
2020/09/10 04:11:00.001,n,180,4.68,4.32,5.04,14.7,75.4,1020.62,0,0,0,0,0.03746
2020/09/10 04:12:00.015,n,160,4.32,3.6,4.68,14.7,75.5,1020.62,0,0,0,0,0.039177
2020/09/10 04:13:00.000,n,164,5.76,4.68,6.84,14.7,75.5,1020.62,0,0,0,0,0.041809
2020/09/10 04:14:00.000,n,174,8.28,6.84,10.440002,14.7,75.6,1020.72,0,0,0,0,0.038338
2020/09/10 04:15:00.000,n,148,5.04,3.96,6.12,14.7,75.7,1020.72,0,0,0,0,0.03746
2020/09/10 04:16:00.003,n,162,5.04,1.8,7.2,14.7,75.9,1020.72,0,0,0,0,0.032234
2020/09/10 04:17:00.001,n,171,6.48,5.4,6.84,14.6,76,1020.72,0,0,0,0,0.038338
2020/09/10 04:18:00.000,n,137,5.04,2.16,7.56,14.6,76,1020.72,0,0,0,0,0.036583
2020/09/10 04:19:00.011,n,119,5.4,5.04,6.12,14.6,76.1,1020.72,0,0,0,0,0.033989
2020/09/10 04:20:00.007,n,151,3.96,3.6,4.68,14.6,76.3,1020.82,0,0,0,0,0.039177
2020/09/10 04:21:00.004,n,158,6.84,5.76,7.92,14.6,76.1,1020.72,0,0,0,0,0.036583
2020/09/10 04:22:00.001,n,225,2.52,1.08,3.24,14.6,76.2,1020.82,0,0,0,0,0.034828
2020/09/10 04:23:00.000,n,11,2.88,2.16,3.96,14.6,76.3,1020.82,0,0,0,0,0.035706
2020/09/10 04:24:00.000,n,155,1.44,1.08,1.44,14.6,76.2,1020.82,0,0,0,0,0.035706
2020/09/10 04:25:00.000,n,349,1.08,0.72,1.44,14.6,76.2,1020.82,0,0,0,0,0.035706
2020/09/10 04:26:00.005,n,115,1.8,1.44,2.16,14.6,76,1020.82,0,0,0,0,0.034828
2020/09/10 04:27:00.002,n,91,2.88,2.16,3.6,14.6,76,1020.92,0,0,0,0,0.031357
2020/09/10 04:28:00.000,n,93,1.8,1.08,2.52,14.6,75.7,1020.82,0,0,0,0,0.034828
2020/09/10 04:29:00.013,n,133,2.52,1.44,4.68,14.6,75.7,1020.82,0,0,0,0,0.039177
2020/09/10 04:30:00.009,n,238,0.72,0,1.8,14.5,76,1020.82,0,0,0,0,0.030479
2020/09/10 04:31:00.000,n,138,1.08,0.72,1.44,14.5,76,1020.82,0,0,0,0,0.034828
2020/09/10 04:32:00.003,n,334,2.16,0.72,3.96,14.6,76,1020.82,0,0,0,0,0.032234
2020/09/10 04:33:00.000,n,148,0.72,0.72,0.72,14.6,75.9,1020.92,0,0,0,0,0.031357
2020/09/10 04:34:00.000,n,79,2.52,1.08,3.6,14.6,75.8,1020.92,0,0,0,0,0.035706
2020/09/10 04:35:00.000,n,178,3.24,2.52,4.32,14.6,75.7,1020.92,0,0,0,0,0.033112
2020/09/10 04:36:00.008,n,240,1.8,1.08,1.8,14.6,75.6,1020.92,0,0,0,0,0.033112
2020/09/10 04:37:00.005,n,257,3.6,3.24,3.96,14.5,75.6,1020.92,0,0,0,0,0.034828
2020/09/10 04:38:00.001,n,222,2.52,2.16,3.6,14.5,75.7,1020.92,0,0,0,0,0.032234
2020/09/10 04:39:00.015,n,172,0.72,0.36,1.08,14.5,75.9,1020.92,0,0,0,0,0.033989
2020/09/10 04:40:00.000,n,262,2.88,2.88,3.24,14.5,76,1020.92,0,0,0,0,0.033989
2020/09/10 04:41:00.000,n,273,2.88,2.52,3.24,14.5,76,1020.92,0,0,0,0,0.031357
2020/09/10 04:42:00.000,n,270,1.44,1.08,1.8,14.5,76.1,1020.92,0,0,0,0,0.033989
2020/09/10 04:43:00.005,n,12,0.72,0.36,1.8,14.5,76.3,1020.92,0,0,0,0,0.033112
2020/09/10 04:44:00.003,n,245,2.16,2.16,2.52,14.5,76.2,1020.92,0,0,0,0,0.032234
2020/09/10 04:45:00.000,n,197,2.16,1.8,2.88,14.5,76.4,1020.92,0,0,0,0,0.033112
2020/09/10 04:46:00.012,n,256,2.16,1.44,2.88,14.5,76.4,1020.92,0,0,0,0,0.030479
2020/09/10 04:47:00.010,n,259,3.96,3.6,3.96,14.5,77.4,1020.92,0,0,0,0,0.029602
2020/09/10 04:48:00.007,n,226,1.08,0.72,1.08,14.6,77.1,1020.92,0,0,0,0,0.033989
2020/09/10 04:49:00.000,n,259,3.6,3.24,3.96,14.6,76.6,1020.92,0,0,0,0,0.028763
2020/09/10 04:50:00.000,n,24,1.08,0.72,1.44,14.5,76.6,1020.92,0,0,0,0,0.030479
2020/09/10 04:51:00.000,n,263,3.24,3.24,3.6,14.5,76.6,1021.02,0,0,0,0,0.032234
2020/09/10 04:52:00.000,n,261,2.88,2.52,2.88,14.5,76.5,1021.02,0,0,0,0,0.032234
2020/09/10 04:53:00.008,n,229,2.52,1.8,2.88,14.5,76.6,1021.02,0,0,0,0,0.035706
2020/09/10 04:54:00.005,n,225,2.52,1.8,3.24,14.5,76.8,1021.02,0,0,0,0,0.033112
2020/09/10 04:55:00.002,n,146,0.72,0.36,0.72,14.5,76.8,1021.02,0,0,0,0,0.028763